Stations météo

Publicité
Kleine Brogel, Belgique (6479): Température de l'air & dewpoint: 21.10.2020 18:00:00 - 27.10.2020 18:00:00 (CET)Kleine Brogel, Belgique (6479): Vitesse du vent & gusts: 21.10.2020 18:00:00 - 27.10.2020 18:00:00 (CET)Kleine Brogel, Belgique (6479): Direction du vent: 21.10.2020 18:00:00 - 27.10.2020 18:00:00 (CET)Kleine Brogel, Belgique (6479): reduced air pressure: 21.10.2020 18:00:00 - 27.10.2020 18:00:00 (CET)Kleine Brogel, Belgique (6479): visibility: 21.10.2020 18:00:00 - 27.10.2020 18:00:00 (CET)
Date & Time tt [°C] td [°C] ff [km/h] ff [knt] fx [km/h] fx [knt] dd ppp [hPa] vv [km]
27.10.2020 18:00:00 11,2 6,7 14 8 32 18 S 1002,8 20
27.10.2020 17:00:00 11,1 6,3 18 10 40 21 S 1003,3 20
27.10.2020 16:00:00 11,3 6,4 14 8 - - S 1003,8 20
27.10.2020 15:00:00 11,5 6,1 22 12 43 23 SSW 1004,5 20
27.10.2020 14:00:00 11,5 6,8 21 11 47 25 SSW 1004,7 10
27.10.2020 13:00:00 11,3 6,7 22 12 - - SSW 1005,2 20
27.10.2020 12:00:00 10,5 6,6 22 12 40 21 SSW 1005,7 20
27.10.2020 11:00:00 10,3 6,8 18 10 40 21 SSW 1005,7 20
27.10.2020 10:00:00 10,0 6,6 22 12 - - SSW 1005,6 20
27.10.2020 09:00:00 9,8 6,6 14 8 29 16 SSW 1005,5 20
27.10.2020 08:00:00 8,0 6,1 14 8 25 14 SSW 1005,2 20
27.10.2020 07:00:00 7,6 6,3 13 7 - - SSW 1004,8 10
27.10.2020 06:00:00 7,6 6,4 11 6 18 10 SSW 1004,6 20
27.10.2020 05:00:00 8,0 6,6 14 8 22 12 SSW 1004,1 20
27.10.2020 04:00:00 8,1 6,6 14 8 - - SSW 1003,7 20
27.10.2020 03:00:00 8,6 6,8 14 8 22 12 SSW 1003,7 20
27.10.2020 02:00:00 8,6 6,7 11 6 18 10 SSW 1003,6 20
27.10.2020 01:00:00 8,8 6,5 14 8 - - SSW 1003,3 20
27.10.2020 00:00:00 9,5 6,6 14 8 29 16 SSW 1003,2 20
26.10.2020 23:00:00 10,0 6,8 14 8 32 18 SSW 1003,1 20
26.10.2020 22:00:00 10,1 6,7 18 10 - - SSW 1003,0 20
26.10.2020 21:00:00 9,8 6,9 14 8 22 12 SSW 1002,7 20
26.10.2020 20:00:00 9,5 7,1 11 6 18 10 SSW 1002,3 20
26.10.2020 19:00:00 9,5 6,8 11 6 - - SSW 1002,3 18
26.10.2020 18:00:00 10,9 6,4 14 8 32 18 SSW 1001,7 18
26.10.2020 17:00:00 11,8 6,2 14 8 29 16 SSW 1001,7 18
26.10.2020 16:00:00 12,0 6,1 14 8 - - SSW 1001,3 20
26.10.2020 15:00:00 12,1 5,8 18 10 32 18 SSW 1001,2 20
26.10.2020 14:00:00 12,2 6,3 22 12 40 21 SSW 1001,1 20
26.10.2020 13:00:00 11,8 6,2 22 12 - - SSW 1001,2 20
26.10.2020 12:00:00 11,2 6,3 18 10 36 19 SSW 1001,6 20
26.10.2020 11:00:00 10,0 7,0 21 11 - - SW - 10
26.10.2020 10:00:00 9,8 6,8 18 10 - - SSW 1001,7 20
26.10.2020 09:00:00 8,8 7,1 14 8 25 14 SSW 1001,7 20
26.10.2020 08:00:00 8,8 7,2 14 8 22 12 SSW 1001,7 18
26.10.2020 07:00:00 8,6 7,4 7 4 - - SSW 1001,2 20
26.10.2020 06:00:00 9,3 7,9 11 6 18 10 SSW 1000,3 20
26.10.2020 05:00:00 9,3 8,0 7 4 18 10 SSW 1000,6 20
26.10.2020 04:00:00 9,4 8,1 11 6 - - SSW 1000,7 20
26.10.2020 03:00:00 9,6 8,4 11 6 22 12 SSW 1000,6 20
26.10.2020 02:00:00 9,7 9,0 7 4 14 8 SSW 1000,5 20
26.10.2020 01:00:00 9,6 8,9 8 4 - - S 1000,7 10
26.10.2020 00:00:00 10,3 9,0 11 6 22 12 SSW 1001,2 20
25.10.2020 23:00:00 10,3 8,8 11 6 22 12 SSW 1001,2 20
25.10.2020 22:00:00 9,5 8,3 7 4 - - S 1001,2 20
25.10.2020 21:00:00 10,0 8,6 7 4 14 8 S 1001,5 20
25.10.2020 20:00:00 10,2 8,7 11 6 18 10 SSW 1001,7 20
25.10.2020 19:00:00 11,1 8,9 11 6 - - S 1001,7 20
25.10.2020 18:00:00 11,1 9,2 11 6 22 12 SSW 1001,8 20
25.10.2020 17:00:00 11,5 10,0 11 6 22 12 SSW 1001,7 20
25.10.2020 16:00:00 12,0 10,2 11 6 - - S 1001,2 20
25.10.2020 15:00:00 12,0 10,4 7 4 25 14 S 1001,3 20
25.10.2020 14:00:00 12,2 11,3 14 8 25 14 SSW 1002,2 20
25.10.2020 13:00:00 12,3 11,0 13 7 - - S 1001,8 10
25.10.2020 12:00:00 11,8 11,3 18 10 29 16 SSW 1003,2 20
25.10.2020 11:00:00 12,3 11,2 14 8 25 14 SSW 1002,6 20
25.10.2020 10:00:00 12,3 11,3 11 6 - - SSW 1002,2 20
25.10.2020 09:00:00 12,0 11,1 14 8 18 10 S 1002,8 20
25.10.2020 08:00:00 10,8 10,3 11 6 25 14 WSW 1002,7 12
25.10.2020 07:00:00 12,7 10,9 18 10 - - SSW 1002,3 17
25.10.2020 06:00:00 14,2 9,9 25 14 47 25 SSW 1002,1 20
25.10.2020 05:00:00 14,3 10,2 18 10 40 21 S 1002,2 20
25.10.2020 04:00:00 14,7 10,1 14 8 - - S 1002,6 20
25.10.2020 03:00:00 15,2 10,3 22 12 40 21 SSW 1003,5 20
25.10.2020 02:00:00 14,9 10,6 18 10 43 23 S 1004,0 20
25.10.2020 01:00:00 - - - - - - - - -
25.10.2020 00:00:00 15,4 11,1 22 12 40 21 SSW 1005,6 20
24.10.2020 23:00:00 15,3 11,4 22 12 43 23 SSW 1006,0 20
24.10.2020 22:00:00 15,1 11,5 18 10 - - SSW 1006,3 20
24.10.2020 21:00:00 15,1 11,6 22 12 40 21 SSW 1007,0 20
24.10.2020 20:00:00 14,8 11,7 18 10 40 21 SSW 1007,7 20
24.10.2020 19:00:00 14,3 11,5 18 10 - - SSW 1008,2 20
24.10.2020 18:00:00 14,5 11,6 18 10 32 18 SSW 1008,7 20
24.10.2020 17:00:00 14,6 11,4 18 10 29 16 S 1009,2 20
24.10.2020 16:00:00 14,7 11,5 22 12 - - SSW 1009,7 20
24.10.2020 15:00:00 14,2 11,8 18 10 32 18 SSW 1010,3 20
24.10.2020 14:00:00 13,6 12,0 21 11 43 23 SSW 1011,1 4,1
24.10.2020 13:00:00 15,1 10,7 22 12 - - SSW 1011,3 20
24.10.2020 12:00:00 14,7 10,8 24 13 43 23 SW 1012,0 10
24.10.2020 11:00:00 12,6 11,6 18 10 32 18 SSW 1012,2 3,7
24.10.2020 10:00:00 12,1 11,4 16 9 - - SSW 1012,2 3,2
24.10.2020 09:00:00 12,5 10,5 18 10 32 18 SSW 1012,1 6
24.10.2020 08:00:00 12,1 10,5 16 9 29 16 SSW 1011,7 10
24.10.2020 07:00:00 12,6 10,1 14 8 - - SSW 1012,0 20
24.10.2020 06:00:00 12,5 10,3 14 8 25 14 SSW 1012,2 20
24.10.2020 05:00:00 12,3 10,5 11 6 18 10 SSW 1012,3 20
24.10.2020 04:00:00 11,8 10,4 11 6 - - SSW 1012,3 20
24.10.2020 03:00:00 12,1 10,3 14 8 22 12 SSW 1012,5 20
24.10.2020 02:00:00 12,4 10,5 14 8 25 14 SW 1012,7 20
24.10.2020 01:00:00 12,1 10,4 14 8 - - SSW 1012,6 20
24.10.2020 00:00:00 12,5 10,5 14 8 25 14 SW 1012,5 20
23.10.2020 23:00:00 13,1 10,8 14 8 25 14 SW 1012,5 20
23.10.2020 22:00:00 13,8 11,2 11 6 - - SSW 1011,8 20
23.10.2020 21:00:00 13,6 11,3 11 6 18 10 SSW 1011,2 20
23.10.2020 20:00:00 13,7 11,5 11 6 18 10 SSW 1011,0 20
23.10.2020 19:00:00 14,1 11,9 7 4 - - SSW 1010,7 20
23.10.2020 18:00:00 14,6 12,2 11 6 18 10 SSW 1010,5 20
23.10.2020 17:00:00 15,8 12,8 7 4 22 12 SSW 1009,8 20
23.10.2020 16:00:00 16,7 13,0 11 6 - - SW 1009,8 15
23.10.2020 15:00:00 17,0 13,5 14 8 22 12 SW 1009,7 15
23.10.2020 14:00:00 15,9 13,8 13 7 22 12 SW 1010,1 10
23.10.2020 13:00:00 15,8 13,7 11 6 - - SW 1010,2 10
23.10.2020 12:00:00 15,3 14,1 14 8 18 10 SW 1010,6 10
23.10.2020 11:00:00 14,5 14,0 7 4 14 8 SSW 1010,7 4,0
23.10.2020 10:00:00 14,0 13,9 4 2 - - N 1010,8 4,0
23.10.2020 09:00:00 13,1 12,9 4 2 4 2 N 1010,8 2,0
23.10.2020 08:00:00 12,0 11,9 4 2 4 2 N 1010,7 1,0
23.10.2020 07:00:00 10,7 10,5 0 0 - - N 1010,7 0,2
23.10.2020 06:00:00 10,3 10,3 4 2 4 2 - 1010,8 0,5
23.10.2020 05:00:00 10,6 10,6 0 0 4 2 N 1011,2 0,1
23.10.2020 04:00:00 12,1 12,1 4 2 - - N 1011,7 0,6
23.10.2020 03:00:00 12,1 12,0 4 2 4 2 - 1012,1 3,3
23.10.2020 02:00:00 12,5 12,4 4 2 7 4 N 1012,5 4,9
23.10.2020 01:00:00 12,3 12,2 4 2 - - N 1012,7 3,8
23.10.2020 00:00:00 12,0 11,9 4 2 7 4 N 1012,6 0,2
22.10.2020 23:00:00 12,4 12,4 4 2 7 4 - 1012,7 0,6
22.10.2020 22:00:00 11,3 11,3 4 2 - - N 1012,6 0,7
22.10.2020 21:00:00 11,3 11,2 2 1 4 2 - 1012,5 9
22.10.2020 20:00:00 11,0 10,9 2 1 4 2 - 1012,0 5
22.10.2020 19:00:00 13,1 12,5 2 1 - - - 1011,8 0,2
22.10.2020 18:00:00 14,3 13,1 4 2 14 8 N 1011,5 20
22.10.2020 17:00:00 16,3 13,9 11 6 22 12 WSW 1010,8 20
22.10.2020 16:00:00 17,5 14,0 14 8 - - SW 1010,7 20
22.10.2020 15:00:00 17,8 14,2 14 8 29 16 SW 1010,7 20
22.10.2020 14:00:00 16,8 13,8 14 8 32 18 SW 1011,2 18
22.10.2020 13:00:00 17,7 13,4 24 13 - - SW 1011,2 10
22.10.2020 12:00:00 16,9 13,4 14 8 29 16 SSW 1011,7 20
22.10.2020 11:00:00 16,5 13,4 14 8 36 19 SSW 1011,8 20
22.10.2020 10:00:00 16,5 12,7 22 12 - - SW 1011,8 20
22.10.2020 09:00:00 16,1 12,9 18 10 29 16 SW 1011,6 20
22.10.2020 08:00:00 14,6 12,4 14 8 25 14 SSW 1010,7 18
22.10.2020 07:00:00 14,3 11,9 14 8 - - SSW 1010,1 15
22.10.2020 06:00:00 13,8 11,8 14 8 22 12 SSW 1009,7 15
22.10.2020 05:00:00 14,0 11,7 11 6 22 12 SSW 1009,6 20
22.10.2020 04:00:00 14,0 11,7 14 8 - - SSW 1009,7 20
22.10.2020 03:00:00 14,0 11,7 11 6 18 10 SSW 1009,6 20
22.10.2020 02:00:00 15,1 12,0 14 8 25 14 SSW 1009,2 20
22.10.2020 01:00:00 16,2 12,3 18 10 - - SW 1008,6 20
22.10.2020 00:00:00 15,9 13,0 11 6 22 12 SSW 1007,8 20
21.10.2020 23:00:00 15,8 13,4 11 6 32 18 SW 1007,5 20
21.10.2020 22:00:00 16,4 13,2 22 12 - - WSW 1006,8 20
21.10.2020 21:00:00 18,2 12,9 25 14 40 21 SW 1005,2 20
21.10.2020 20:00:00 18,1 12,8 22 12 43 23 SSW 1004,3 20
21.10.2020 19:00:00 18,6 12,5 25 14 - - SW 1003,3 20
21.10.2020 18:00:00 19,0 12,3 29 16 54 29 SW 1001,8 20

tt = Température de l'air
td = dewpoint
ff = Vitesse du vent
fx = gusts
dd = Direction du vent
ppp = reduced air pressure
vv = visibility

stations d'obs. à proximité